TimeEDT,TemperatureF,Dew PointF,Humidity,Sea Level PressureIn,VisibilityMPH,Wind Direction,Wind SpeedMPH,Gust SpeedMPH,PrecipitationIn,Events,Conditions,WindDirDegrees,DateUTC
12:56 AM,75.9,73.9,94,29.97,6.0,SW,3.5,-,N/A,,Scattered Clouds,220,2013-07-26 04:56:00
1:56 AM,75.9,73.9,94,29.96,8.0,Calm,Calm,-,N/A,,Partly Cloudy,0,2013-07-26 05:56:00
2:56 AM,75.0,73.0,94,29.95,9.0,Calm,Calm,-,N/A,,Partly Cloudy,0,2013-07-26 06:56:00
3:56 AM,75.0,73.0,94,29.95,8.0,Calm,Calm,-,N/A,,Partly Cloudy,0,2013-07-26 07:56:00
4:56 AM,73.9,73.0,97,29.96,7.0,SW,3.5,-,N/A,,Partly Cloudy,220,2013-07-26 08:56:00
5:56 AM,73.9,73.0,97,29.98,7.0,Calm,Calm,-,N/A,,Partly Cloudy,0,2013-07-26 09:56:00
6:56 AM,73.0,72.0,96,29.99,6.0,Calm,Calm,-,N/A,,Mostly Cloudy,0,2013-07-26 10:56:00
7:56 AM,75.9,73.9,94,30.00,6.0,Calm,Calm,-,N/A,,Mostly Cloudy,0,2013-07-26 11:56:00
8:56 AM,81.0,77.0,88,30.01,9.0,Calm,Calm,-,N/A,,Scattered Clouds,0,2013-07-26 12:56:00
9:56 AM,84.0,75.9,76,30.02,9.0,Calm,Calm,-,N/A,,Scattered Clouds,0,2013-07-26 13:56:00
10:56 AM,86.0,73.9,67,30.03,9.0,Calm,Calm,-,N/A,,Mostly Cloudy,0,2013-07-26 14:56:00
11:56 AM,88.0,73.9,63,30.03,10.0,Calm,Calm,-,N/A,,Mostly Cloudy,0,2013-07-26 15:56:00
12:56 PM,89.1,75.0,63,30.03,10.0,East,3.5,-,N/A,,Mostly Cloudy,80,2013-07-26 16:56:00
1:56 PM,90.0,73.9,59,30.01,10.0,NE,8.1,-,N/A,,Mostly Cloudy,40,2013-07-26 17:56:00
2:56 PM,90.0,71.1,54,29.99,10.0,ENE,6.9,-,N/A,,Scattered Clouds,60,2013-07-26 18:56:00
3:56 PM,89.1,73.9,61,29.99,10.0,East,12.7,-,N/A,,Mostly Cloudy,90,2013-07-26 19:56:00
4:56 PM,84.9,73.0,67,29.99,10.0,ENE,10.4,-,N/A,,Mostly Cloudy,70,2013-07-26 20:56:00
5:56 PM,86.0,73.9,67,29.99,10.0,ENE,12.7,-,N/A,,Mostly Cloudy,70,2013-07-26 21:56:00
6:56 PM,82.9,73.9,74,29.98,10.0,East,9.2,-,N/A,,Mostly Cloudy,80,2013-07-26 22:56:00
7:56 PM,82.0,75.0,79,29.99,10.0,East,12.7,-,N/A,,Mostly Cloudy,80,2013-07-26 23:56:00
8:56 PM,81.0,75.9,85,30.00,10.0,ESE,4.6,-,N/A,,Mostly Cloudy,110,2013-07-27 00:56:00
9:56 PM,80.1,75.9,87,30.00,9.0,East,6.9,-,N/A,,Mostly Cloudy,90,2013-07-27 01:56:00
10:56 PM,79.0,77.0,94,30.02,8.0,South,4.6,-,N/A,,Overcast,170,2013-07-27 02:56:00
11:56 PM,79.0,75.9,90,30.02,8.0,SSE,3.5,-,N/A,,Mostly Cloudy,150,2013-07-27 03:56:00